Regional Weather Roundup
Issued by NWS Sioux Falls, SD

Home | Current Version | Previous Version | Graphics & Text | Print | Product List | Glossary On
Versions: 1 2 3 4 5 6 7 8 9 10 11 12 13 14 15 16 17 18 19 20 21 22 23 24 25 26 27 28 29 30 31 32 33 34 35 36 37 38 39 40 41 42 43 44 45 46 47 48 49 50
000
ASUS43 KFSD 241702
RWRFSD

WEATHER ROUNDUP FOR SE SOUTH DAKOTA/SW MINNESOTA/NW IOWA
NATIONAL WEATHER SERVICE SIOUX FALLS SD
1200 PM CDT THU JUL 24 2014

NOTE: "FAIR" INDICATES FEW OR NO CLOUDS BELOW 12,000 FEET WITH NO
SIGNIFICANT WEATHER AND OR OBSTRUCTIONS TO VISIBILITY.


SDZ038>040-050-052>070-241800-
SOUTHEAST SOUTH DAKOTA

CITY           SKY/WX    TMP DP  RH WIND       PRES   REMARKS
CHAMBERLAIN    MOSUNNY   78  65  63 SE22G30   29.88R
HURON          CLOUDY    73  63  70 SE18G30   29.91F
MADISON        TSTM      64  64 100 SE20      30.04F
MITCHELL       PTSUNNY   77  65  66 SE14      29.96S
SIOUX FALLS    TSTM      66  62  87 NE12      30.12R FOG
WINNER         FAIR      87  66  49 S28G40    29.83F
YANKTON        MOSUNNY   77  63  61 S24G32    29.99F
$$

MNZ071-072-080-081-089-090-097-098-241800-
SOUTHWEST MINNESOTA

CITY           SKY/WX    TMP DP  RH WIND       PRES   REMARKS
FAIRMONT       MOSUNNY   77  55  47 S14       30.10F
JACKSON        MOSUNNY   75  55  50 S9        30.10F
LUVERNE        TSTM      68  61  77 S3        30.12R
MARSHALL       CLOUDY    75  59  57 S14       30.05F
MONTEVIDEO     MOSUNNY   79  61  53 S12G17    30.04F
PIPESTONE      CLOUDY    66  61  82 S10       30.11R
REDWOOD FALLS  MOSUNNY   80  58  46 S15       30.07F
TRACY          CLOUDY    73  60  62 S9        30.09F THUNDER
WINDOM         MOSUNNY   75  57  53 S9        30.09F
WORTHINGTON    PTSUNNY   72  57  60 S8        30.11F
$$

IAZ001>003-012>014-020>022-031-032-NEZ013-014-SDZ071-241800-
NORTHWEST IOWA

CITY           SKY/WX    TMP DP  RH WIND       PRES   REMARKS
CHEROKEE       PTSUNNY   74  61  64 S8        30.11R
DENISON        CLOUDY    70  63  78 S14G21    30.02F
ESTHERVILLE    MOSUNNY   74  59  59 S14       30.11S
LE MARS        PTSUNNY   72  61  68 S10G21    30.09R
ORANGE CITY    RAIN      68  61  77 SE7       30.10F
SHELDON        PTSUNNY   70  61  73 VRB6G17   30.11R
SIOUX CITY     MOSUNNY   75  64  68 S14       30.06R
SPENCER        MOSUNNY   76  59  55 S13       30.10R
STORM LAKE     PTSUNNY   73  63  68 S12       30.11R
$$

ABBREVIATIONS USED IN REMARKS
   TC - TEMPERATURE IN CELSIUS
  WCI - WIND CHILL INDEX
   HX - HEAT INDEX
  VSB - VISIBILITY




USA.gov is the U.S. government's official web portal to all federal, state and local government web resources and services.